| time (UTC) | temp F | wind direction | speed MPH | gust MPH | rain 1hr in | rain 24hr in | rain mn in | humidity % | barometer mb |
| 20260504180557 | 75 | 293 | 1.0 | 4.0 | 0.00 | 0.00 | 0.00 | 43 | 1015.1 |
| 20260504175517 | 76 | 315 | 2.0 | 7.0 | 0.00 | 0.00 | 0.00 | 47 | 1015.0 |
| 20260504174537 | 75 | 315 | 1.0 | 3.0 | 0.00 | 0.00 | 0.00 | 46 | 1015.2 |
| 20260504173517 | 75 | 90 | 1.0 | 6.0 | 0.00 | 0.00 | 0.00 | 45 | 1015.2 |
| 20260504172537 | 75 | 315 | 1.0 | 4.0 | 0.00 | 0.00 | 0.00 | 47 | 1015.4 |
| 20260504171517 | 74 | 45 | 1.0 | 5.0 | 0.00 | 0.00 | 0.00 | 44 | 1015.3 |
| 20260504170517 | 74 | 45 | 1.0 | 5.0 | 0.00 | 0.00 | 0.00 | 45 | 1015.7 |
| 20260504150516 | 68 | 293 | 1.0 | 5.0 | 0.00 | 0.00 | 0.00 | 49 | 1017.0 |
| 20260504140516 | 62 | 0.0 | 1.0 | 0.00 | 0.00 | 0.00 | 68 | 1016.7 | |
| 20260504130516 | 54 | 0.0 | 1.0 | 0.00 | 0.00 | 0.00 | 84 | 1016.6 | |
| 20260504110556 | 37 | 0.0 | 0.0 | 0.00 | 0.00 | 0.00 | 95 | 1016.6 | |
| 20260504100536 | 37 | 0.0 | 0.0 | 0.00 | 0.00 | 0.00 | 94 | 1016.5 | |
| 20260504081516 | 38 | 0.0 | 0.0 | 0.00 | 0.00 | 0.00 | 92 | 1016.4 | |
| 20260504080516 | 38 | 0.0 | 0.0 | 0.00 | 0.00 | 0.00 | 92 | 1016.3 | |
| 20260504050517 | 40 | 0.0 | 0.0 | 0.00 | 0.00 | 0.00 | 89 | 1016.5 | |
| 20260504045517 | 40 | 0.0 | 0.0 | 0.00 | 0.00 | 0.00 | 89 | 1016.4 | |
| 20260504044517 | 40 | 0.0 | 0.0 | 0.00 | 0.00 | 0.00 | 88 | 1016.3 | |
| 20260504043537 | 40 | 0.0 | 0.0 | 0.00 | 0.00 | 0.00 | 88 | 1016.2 | |
| 20260504042558 | 40 | 0.0 | 0.0 | 0.00 | 0.00 | 0.00 | 88 | 1016.1 | |
| 20260504041558 | 40 | 0.0 | 0.0 | 0.00 | 0.00 | 0.00 | 87 | 1016.2 | |
| 20260504040658 | 40 | 0.0 | 0.0 | 0.00 | 0.00 | 0.00 | 87 | 1016.2 | |
| 20260504035516 | 40 | 0.0 | 0.0 | 0.00 | 0.00 | 0.00 | 86 | 1016.2 | |
| 20260504034616 | 41 | 0.0 | 0.0 | 0.00 | 0.00 | 0.00 | 85 | 1016.1 | |
| 20260504033516 | 41 | 0.0 | 0.0 | 0.00 | 0.00 | 0.00 | 84 | 1016.3 | |
| 20260504032536 | 41 | 0.0 | 0.0 | 0.00 | 0.00 | 0.00 | 84 | 1016.2 | |
| 20260504031556 | 41 | 0.0 | 0.0 | 0.00 | 0.00 | 0.00 | 84 | 1016.3 | |
| 20260504030536 | 42 | 0.0 | 0.0 | 0.00 | 0.00 | 0.00 | 83 | 1016.5 | |
| 20260504025516 | 42 | 0.0 | 0.0 | 0.00 | 0.00 | 0.00 | 83 | 1016.4 | |
| 20260504024516 | 43 | 0.0 | 0.0 | 0.00 | 0.00 | 0.00 | 82 | 1016.3 | |
| 20260504023516 | 43 | 0.0 | 0.0 | 0.00 | 0.00 | 0.00 | 81 | 1016.1 | |
| 20260504022516 | 43 | 0.0 | 0.0 | 0.00 | 0.00 | 0.00 | 80 | 1016.0 | |
| 20260504021536 | 44 | 0.0 | 0.0 | 0.00 | 0.00 | 0.00 | 79 | 1015.9 | |
| 20260504020516 | 44 | 0.0 | 0.0 | 0.00 | 0.00 | 0.00 | 78 | 1015.9 | |
| 20260504015536 | 44 | 0.0 | 0.0 | 0.00 | 0.00 | 0.00 | 76 | 1015.7 | |
| 20260504014616 | 45 | 0.0 | 0.0 | 0.00 | 0.00 | 0.00 | 75 | ||
| 20260504013616 | 46 | 0.0 | 0.0 | 0.00 | 0.00 | 0.00 | 73 | ||
| 20260504012536 | 46 | 0.0 | 0.0 | 0.00 | 0.00 | 0.00 | 72 | ||
| 20260504011518 | 47 | 0.0 | 0.0 | 0.00 | 0.00 | 0.00 | 69 | ||
| 20260504010518 | 48 | 0.0 | 0.0 | 0.00 | 0.00 | 0.00 | 68 | ||
| 20260504005638 | 49 | 0.0 | 0.0 | 0.00 | 0.00 | 0.00 | 66 | ||
| 20260504004538 | 51 | 0.0 | 0.0 | 0.00 | 0.00 | 0.00 | 65 | ||
| 20260504003536 | 52 | 0.0 | 0.0 | 0.00 | 0.00 | 0.00 | 61 | ||
| 20260504002517 | 53 | 0.0 | 0.0 | 0.00 | 0.00 | 0.00 | 60 | ||
| 20260504001517 | 55 | 0.0 | 0.0 | 0.00 | 0.00 | 0.00 | 55 | ||
| 20260504000517 | 57 | 0.0 | 0.0 | 0.00 | 0.00 | 0.00 | 51 | ||
| 20260503235517 | 59 | 0.0 | 0.0 | 0.00 | 0.00 | 0.00 | 49 | ||
| 20260503234537 | 60 | 0.0 | 0.0 | 0.00 | 0.00 | 0.00 | 45 | ||
| 20260503233517 | 62 | 0.0 | 0.0 | 0.00 | 0.00 | 0.00 | 42 | ||
| 20260503232617 | 63 | 0.0 | 2.0 | 0.00 | 0.00 | 0.00 | 38 | ||
| 20260503231617 | 65 | 0.0 | 0.0 | 0.00 | 0.00 | 0.00 | 38 | ||
| 20260503230517 | 68 | 0.0 | 1.0 | 0.00 | 0.00 | 0.00 | 35 | ||
| 20260503225517 | 69 | 0.0 | 0.0 | 0.00 | 0.00 | 0.00 | 35 | ||
| 20260503224517 | 70 | 0.0 | 1.0 | 0.00 | 0.00 | 0.00 | 32 | ||
| 20260503223517 | 69 | 0.0 | 1.0 | 0.00 | 0.00 | 0.00 | 34 | ||
| 20260503222537 | 69 | 0.0 | 4.0 | 0.00 | 0.00 | 0.00 | 33 | ||
| 20260503221537 | 69 | 293 | 1.0 | 2.0 | 0.00 | 0.00 | 0.00 | 33 | |
| 20260503220537 | 70 | 0.0 | 2.0 | 0.00 | 0.00 | 0.00 | 30 | ||
| 20260503215517 | 70 | 0.0 | 2.0 | 0.00 | 0.00 | 0.00 | 31 | ||
| 20260503214517 | 69 | 0.0 | 3.0 | 0.00 | 0.00 | 0.00 | 33 | ||
| 20260503213537 | 69 | 23 | 1.0 | 4.0 | 0.00 | 0.00 | 0.00 | 32 | |
| 20260503212537 | 70 | 293 | 1.0 | 5.0 | 0.00 | 0.00 | 0.00 | 29 | |
| 20260503211517 | 69 | 0.0 | 1.0 | 0.00 | 0.00 | 0.00 | 30 | ||
| 20260503210637 | 68 | 270 | 1.0 | 4.0 | 0.00 | 0.00 | 0.00 | 32 | |
| 20260503205517 | 68 | 315 | 1.0 | 4.0 | 0.00 | 0.00 | 0.00 | 32 | |
| 20260503204517 | 68 | 248 | 1.0 | 4.0 | 0.00 | 0.00 | 0.00 | 31 | |
| 20260503203537 | 67 | 45 | 1.0 | 3.0 | 0.00 | 0.00 | 0.00 | 34 | |
| 20260503202517 | 68 | 293 | 2.0 | 7.0 | 0.00 | 0.00 | 0.00 | 30 | |
| 20260503201537 | 68 | 248 | 1.0 | 4.0 | 0.00 | 0.00 | 0.00 | 31 | |
| 20260503200537 | 67 | 0 | 1.0 | 4.0 | 0.00 | 0.00 | 0.00 | 32 | |
| 20260503195517 | 67 | 293 | 1.0 | 4.0 | 0.00 | 0.00 | 0.00 | 31 | |
| 20260503194517 | 66 | 45 | 1.0 | 5.0 | 0.00 | 0.00 | 0.00 | 32 | |
| 20260503193557 | 65 | 23 | 2.0 | 7.0 | 0.00 | 0.00 | 0.00 | 37 | |
| 20260503192557 | 66 | 45 | 1.0 | 6.0 | 0.00 | 0.00 | 0.00 | 34 | |
| 20260503191557 | 65 | 270 | 2.0 | 8.0 | 0.00 | 0.00 | 0.00 | 32 | |
| 20260503190557 | 64 | 23 | 1.0 | 5.0 | 0.00 | 0.00 | 0.00 | 36 | |
| 20260503185517 | 64 | 23 | 3.0 | 7.0 | 0.00 | 0.00 | 0.00 | 32 | |
| 20260503184517 | 64 | 23 | 2.0 | 8.0 | 0.00 | 0.00 | 0.00 | 36 | |
| 20260503183517 | 64 | 270 | 1.0 | 5.0 | 0.00 | 0.00 | 0.00 | 36 | |
| 20260503182517 | 62 | 135 | 1.0 | 4.0 | 0.00 | 0.00 | 0.00 | 38 | |
| 20260503181517 | 63 | 23 | 1.0 | 8.0 | 0.00 | 0.00 | 0.00 | 37 |